User: anonymous   Login
Location: Unspecified
(0.0000°N, 0.0000°E)
Time: 12:37:09
(UTC+00:00)
Language:

APRIZESAT 9 - Orbit

View from above orbital plane
View from above orbital plane
View from above satellite
View from above satellite

Ground track
Ground track

The orbit data is extracted from the following two-line orbital elements,

1 40018U 14033J   18172.19370874  .00000009  00000-0  95832-5 0  9993
2 40018  97.7915  39.0875 0070768 208.5533 151.1791 14.69877457214694
Epoch (UTC): 21 June 2018 04:38:56
Eccentricity: 0.0070768
inclination: 97.7915°
perigee height: 611 km
apogee height: 711 km
right ascension of ascending node: 39.0875°
argument of perigee: 208.5533°
revolutions per day: 14.69877457
mean anomaly at epoch: 151.1791°
orbit number at epoch: 21469

The dashed part of the orbit path shows where the satellite is in the earth's shadow,  

DLR